Track STARLINK-4261 now! 10-day predictions STARLINK-4261 is classified as:
1 52868U 22062AQ 22227.91667824 -.00382534 00000-0 -69963-2 0 9991 2 52868 53.2173 111.8567 0001293 48.0907 118.5567 15.50165364 9833